Wind_Speed
14 14 14 14 13 13 13 15 18 19 20 21 22 23 23 24 25 23 21 20 18 21 25 24 27 30 28 25 23 22 23 24 25 26 26 27 26 26 26 28 29 31 32 35 38 37 36 37 37 39 40 35 31 31 30 29 28 31 33 34 38 41 43 47 49 51 53 51 48 48 48 44 40 41 41 39 39 40 39 36 33 31 30 29 27 26
13 13 13 13 12 14 16 16 18 18 19 20 21 22 23 24 24 22 22 22 19 22 27 24 27 31 29 26 25 24 25 27 28 28 29 29 29 28 28 29 30 31 31 32 36 35 34 35 35 37 42 40 34 32 32 30 28 30 34 35 38 42 45 48 50 53 54 52 49 49 48 43 40 41 41 38 38 39 39 38 35 33 31 29 27 27
12 11 11 13 14 16 17 17 17 16 17 19 19 21 22 21 21 21 20 20 18 21 25 23 25 31 30 28 27 26 28 30 30 30 31 30 30 31 31 31 32 33 32 31 35 35 32 32 33 36 41 43 38 33 33 31 28 29 33 36 38 42 46 49 51 54 55 54 51 47 47 43 39 41 42 40 39 39 39 37 35 34 32 29 27 27
12 11 11 14 16 18 18 15 15 16 17 18 18 19 21 20 19 19 16 14 13 17 22 23 26 32 32 30 31 30 30 32 32 31 32 31 32 34 33 32 32 34 34 33 36 35 32 30 30 33 39 43 42 36 34 34 31 30 32 36 38 41 46 49 52 54 54 54 52 48 47 44 41 42 43 43 43 42 39 36 35 34 31 28 28 28
15 13 13 17 19 18 17 15 14 16 17 17 17 19 20 20 18 19 17 15 17 20 23 25 27 31 31 28 28 27 27 30 30 29 30 31 33 34 34 34 32 34 34 34 37 36 33 31 30 31 34 40 44 40 37 36 34 32 32 34 38 41 44 48 50 53 54 55 55 52 50 48 46 46 46 46 46 43 39 37 36 34 31 29 29 28
13 14 17 19 19 15 14 16 15 14 17 17 15 15 17 18 18 18 17 17 18 19 17 17 18 21 23 19 17 17 18 21 23 24 27 29 31 33 34 35 34 35 36 38 41 39 35 33 31 30 31 37 44 43 39 37 36 33 32 32 36 40 43 46 48 51 56 58 57 56 53 52 51 49 47 45 44 42 39 38 36 34 32 30 29 28
13 17 17 17 16 14 14 15 13 11 14 14 12 12 12 13 16 16 16 16 16 16 12 12 13 17 21 19 15 15 16 18 18 20 23 25 27 31 34 35 34 35 36 38 40 40 37 35 34 32 32 35 41 44 41 38 37 35 32 32 34 38 41 44 47 50 54 57 55 54 53 53 52 48 45 43 42 41 40 39 37 35 32 30 29 29
17 18 14 14 15 15 14 13 11 9 11 12 12 13 12 13 15 15 16 16 17 19 20 19 19 19 22 23 19 17 20 21 22 23 23 24 25 28 32 34 34 34 35 36 37 38 37 35 34 33 33 34 38 44 45 40 38 37 34 33 35 37 39 43 46 48 51 51 49 50 53 53 53 49 45 43 41 41 41 40 38 34 32 31 31 31
17 15 13 13 14 13 13 11 11 11 11 12 12 13 13 14 16 15 16 18 17 19 21 19 17 16 19 23 20 17 21 23 23 23 22 23 24 26 28 31 32 33 33 34 35 35 34 32 32 31 32 35 37 43 47 42 38 38 35 34 35 36 38 42 46 46 47 47 43 44 50 52 53 51 47 45 42 40 41 40 38 35 34 34 34 33
18 12 10 14 15 12 12 10 11 11 10 12 14 14 15 15 16 16 15 17 16 16 20 19 15 12 14 18 17 14 18 20 18 18 19 21 23 24 26 28 31 31 31 33 34 33 32 32 32 30 32 37 39 42 47 45 40 39 37 36 37 37 37 40 44 45 44 43 39 39 43 49 53 52 49 47 43 42 42 41 39 38 37 37 37 35
23 13 7 17 19 13 13 12 11 12 11 13 14 14 15 16 16 16 15 15 12 12 18 18 14 13 13 13 11 9 11 12 12 12 13 16 20 23 25 26 29 30 30 32 34 32 32 34 34 32 34 39 41 42 47 47 42 40 39 37 38 38 37 38 42 43 40 38 36 35 38 45 52 53 49 47 45 44 44 42 42 41 40 40 39 37
21 11 10 22 22 16 17 14 9 11 11 11 11 12 13 13 13 12 12 11 8 10 14 13 12 13 13 12 10 7 7 8 9 10 11 12 15 20 23 25 27 29 29 30 32 33 34 36 37 36 37 41 44 44 47 49 45 42 40 39 38 38 38 37 39 41 39 36 34 33 35 43 51 53 49 47 45 44 44 43 43 43 42 42 40 37
18 11 15 24 22 21 23 16 9 7 8 8 8 10 10 8 7 7 7 6 8 11 13 11 11 13 18 22 20 16 15 15 15 15 14 14 14 16 20 24 27 28 29 29 30 34 36 36 37 38 39 43 46 47 48 49 47 44 42 40 38 37 37 36 37 40 40 39 38 36 38 44 50 52 49 46 46 45 43 43 45 45 44 42 39 37
19 13 17 23 21 23 25 18 12 8 7 7 8 8 8 5 5 5 6 6 8 11 12 9 9 14 19 19 16 17 17 16 16 16 16 16 16 16 17 22 27 28 29 29 30 34 37 35 34 35 39 44 48 49 49 50 48 46 44 42 39 36 36 37 37 39 41 43 42 40 41 45 49 51 50 48 48 47 45 44 45 44 43 43 40 37
14 10 17 24 21 23 25 18 14 14 11 8 8 9 9 9 7 5 6 7 8 14 15 9 6 11 14 12 13 15 14 12 12 11 12 14 16 17 18 21 26 30 32 31 30 33 36 34 32 31 35 42 48 50 50 49 49 47 46 44 40 37 36 37 38 39 41 43 43 42 43 46 48 48 49 49 50 49 47 46 44 41 41 45 44 41
17 14 20 26 23 23 23 18 15 14 9 7 6 6 9 12 11 9 12 15 16 17 15 13 14 17 21 21 20 16 13 12 11 10 9 10 11 15 18 20 25 31 34 32 31 33 35 34 32 30 31 37 44 49 50 49 50 49 47 45 41 38 36 37 38 40 39 40 42 44 45 47 48 48 47 49 51 51 49 47 44 41 41 45 47 46
19 20 22 26 26 23 17 15 16 12 8 7 5 5 9 14 14 13 14 15 15 13 10 13 18 21 21 18 13 10 9 10 10 10 10 10 10 12 17 21 23 28 33 34 34 35 36 35 34 31 30 33 39 45 49 50 50 50 48 46 42 39 37 37 40 41 39 40 43 45 47 48 50 50 47 46 49 50 48 46 45 42 42 46 49 51
19 23 24 27 26 20 14 13 17 18 14 8 5 9 13 11 10 10 8 7 7 8 9 12 16 19 16 10 8 7 7 6 5 7 8 10 11 13 18 24 26 26 28 34 37 36 36 36 35 33 31 31 34 39 44 47 49 50 49 47 43 40 39 38 41 44 42 42 44 46 47 47 48 49 46 44 45 47 48 47 45 40 40 45 50 50
19 19 21 28 25 17 13 12 16 21 22 16 10 12 12 7 7 6 5 6 7 7 8 11 14 16 14 10 9 8 6 6 7 7 6 8 10 13 17 25 32 31 29 33 38 38 37 37 36 34 31 31 31 32 37 41 44 47 49 47 43 41 40 38 43 49 48 45 44 46 45 44 46 45 40 40 42 43 45 48 48 43 41 45 47 45
17 11 15 27 24 13 12 13 14 17 22 26 21 14 10 9 9 8 7 9 9 7 8 10 10 11 12 13 11 8 8 11 14 13 11 9 9 12 17 24 33 37 37 39 40 40 39 38 37 35 33 31 30 30 31 34 38 42 44 45 43 41 39 38 43 51 52 47 44 44 44 44 46 40 33 35 40 41 43 46 48 48 47 47 46 43
18 10 14 25 22 11 11 12 13 15 16 21 26 23 18 14 13 13 12 11 9 7 7 8 9 12 15 14 11 11 15 19 20 18 16 12 10 11 14 22 32 39 42 43 41 40 40 40 38 37 34 33 32 31 30 31 34 37 40 42 43 42 40 38 42 50 53 50 45 42 42 42 41 34 28 32 39 43 45 44 45 48 49 49 47 44
17 12 16 23 20 12 11 10 11 18 18 15 21 29 27 20 16 12 6 5 7 7 9 9 9 14 18 15 14 20 24 24 23 20 19 16 14 13 13 17 27 37 43 45 43 42 42 41 40 39 37 35 34 33 31 30 31 33 35 38 40 40 40 38 40 45 49 50 48 45 41 35 31 27 26 30 38 43 44 42 43 46 47 47 46 43
19 13 15 21 18 12 13 12 11 19 22 15 17 29 33 27 22 14 8 8 10 11 14 13 9 12 18 18 20 26 27 24 22 20 18 17 17 17 17 17 23 33 41 45 46 45 44 43 42 40 39 38 35 34 33 32 31 31 32 33 36 38 38 37 37 42 46 47 49 49 43 31 24 23 25 30 37 41 41 40 41 42 41 42 41 40
18 11 14 21 14 8 11 12 12 19 23 19 20 30 34 32 29 20 13 12 12 11 12 10 7 12 20 23 26 27 24 22 20 19 19 18 18 19 21 23 24 31 39 45 48 47 47 46 44 42 41 40 38 36 35 34 33 32 31 30 32 34 36 36 35 38 42 45 48 49 43 32 25 23 26 30 34 38 41 39 38 36 35 36 38 38
14 10 15 18 11 7 9 7 10 19 22 22 26 32 35 36 34 25 17 12 8 7 12 10 9 20 30 32 30 26 23 23 22 20 20 21 21 20 22 26 27 31 38 45 49 49 50 50 48 46 43 42 41 39 36 35 35 34 32 31 30 31 32 34 35 35 38 44 50 49 41 34 31 27 27 29 31 35 37 34 30 30 32 34 36 36
10 8 12 12 8 8 9 7 11 20 20 22 32 36 36 37 34 27 22 14 8 13 20 16 16 31 41 38 33 29 27 28 26 21 21 22 24 23 23 26 29 33 39 44 49 50 51 53 52 49 47 44 43 41 38 36 36 35 34 32 31 29 28 30 34 36 36 40 47 52 48 43 39 32 27 29 31 32 34 30 27 28 30 31 31 30
6 6 10 10 9 10 12 14 16 18 15 19 34 39 36 36 33 29 23 16 17 22 24 20 24 38 45 43 39 38 34 31 27 22 21 23 26 27 26 27 28 33 39 44 49 52 52 53 54 53 50 47 45 43 41 38 37 36 34 33 32 30 28 29 32 36 37 36 40 50 54 52 46 37 30 32 34 34 34 32 30 29 28 28 27 26
6 6 10 11 8 9 13 16 17 14 10 15 34 41 39 38 35 30 25 23 25 21 19 27 37 40 42 46 44 43 38 33 27 22 21 20 22 26 29 29 28 32 39 43 48 52 53 53 55 54 53 50 47 45 43 40 38 36 34 32 32 31 30 29 31 34 37 37 36 42 51 56 51 43 35 33 35 35 34 33 31 30 28 27 27 25
8 8 11 10 7 7 12 14 13 12 9 12 31 43 41 39 38 34 30 31 30 20 21 36 45 39 40 47 49 45 37 30 25 21 19 18 17 20 25 30 31 33 38 44 48 52 55 55 55 55 54 53 50 47 45 43 40 38 35 32 31 32 32 30 30 33 36 38 36 37 47 58 57 48 39 35 36 37 36 34 31 29 28 28 27 26
10 10 12 11 8 6 10 11 9 10 11 12 28 45 42 38 38 34 32 34 32 26 28 41 47 44 44 50 52 44 30 22 20 19 17 17 19 19 20 27 33 33 36 43 48 51 55 56 55 55 54 54 53 50 47 45 43 40 37 33 30 31 32 30 30 32 33 34 35 36 46 60 61 53 43 38 40 40 38 37 34 31 29 28 27 25
11 12 12 12 9 7 10 9 6 10 12 12 25 45 45 40 41 38 37 38 34 30 37 48 52 50 52 56 51 36 22 15 14 16 16 17 18 18 17 21 30 34 35 41 47 49 53 56 56 55 55 55 55 52 49 47 44 42 39 35 31 30 31 31 30 32 33 31 31 35 47 62 63 54 45 43 45 45 41 39 37 34 31 29 28 27
13 13 12 12 10 8 12 10 4 8 10 9 26 49 47 42 44 40 37 37 32 32 44 53 53 53 58 59 46 28 18 12 10 12 14 15 17 16 14 15 22 31 35 41 46 48 52 55 56 56 55 55 55 54 52 49 46 43 41 38 33 30 31 32 31 32 33 33 32 35 47 60 61 53 47 46 48 49 45 41 38 35 34 32 31 30
14 14 12 11 10 9 13 11 5 8 8 7 28 47 43 39 42 38 35 35 32 34 47 53 51 52 58 58 46 31 22 14 10 10 11 12 14 17 19 18 19 26 33 41 45 46 49 53 55 55 54 54 55 55 53 51 48 44 42 39 35 32 31 32 32 32 33 37 40 39 43 51 52 48 47 48 49 50 48 44 40 37 36 36 34 34
15 14 10 11 12 13 17 14 7 8 8 7 25 41 37 34 39 38 36 35 35 39 47 49 48 52 57 55 48 38 27 19 17 17 17 16 14 16 21 24 25 25 30 40 46 45 47 51 54 54 53 52 53 54 53 51 49 46 43 40 37 34 33 34 34 32 33 38 44 43 41 41 41 41 44 47 49 50 49 47 45 43 42 42 41 39
15 14 9 11 13 14 17 14 7 8 8 10 27 41 36 32 34 36 32 31 36 45 51 51 52 56 57 51 42 34 24 20 20 20 19 19 17 19 21 23 25 24 27 37 47 47 45 49 53 54 52 51 51 52 52 51 49 46 43 40 37 35 35 35 35 34 33 36 41 45 43 40 38 39 42 45 46 47 47 47 46 45 45 45 43 40
15 13 11 13 13 13 15 13 8 7 8 18 35 44 41 38 38 37 34 35 43 49 51 53 55 57 55 46 37 28 21 20 20 20 18 17 18 21 23 23 22 23 24 32 46 48 42 46 52 53 51 50 49 49 49 48 46 44 42 39 37 36 36 36 36 36 35 34 37 41 44 43 41 40 41 43 43 43 43 43 42 41 40 39 39 37
13 13 14 14 13 14 15 12 10 7 10 28 44 44 42 41 37 32 30 35 46 50 50 53 55 56 54 45 36 28 22 23 23 23 21 15 12 14 15 16 17 21 22 28 42 46 39 42 49 50 50 49 49 48 46 45 44 42 40 39 38 38 37 36 37 37 37 36 35 37 42 45 45 43 40 40 41 40 40 39 38 36 34 34 34 34
13 14 15 13 12 16 14 11 11 7 11 31 43 40 38 34 30 27 23 29 45 50 50 52 52 54 54 47 39 34 29 30 32 32 31 25 17 12 5 5 10 16 19 25 40 45 39 39 44 47 48 47 47 46 43 42 42 40 39 39 38 39 38 37 38 38 38 37 35 35 38 42 45 45 43 42 40 39 39 38 36 35 33 32 32 32
14 15 16 13 14 18 16 12 11 7 11 27 37 41 39 30 31 32 21 25 46 52 50 53 50 51 55 48 41 40 37 37 37 34 34 31 23 17 9 1 5 13 18 25 39 46 41 37 40 44 46 45 44 44 41 40 41 40 39 39 39 40 40 39 39 38 37 37 36 35 35 36 39 41 42 44 43 42 42 41 38 36 35 34 33 34
16 17 19 18 17 19 16 13 9 6 14 27 34 40 40 31 33 35 19 26 48 51 49 53 49 48 54 49 41 41 39 38 36 31 29 26 21 18 14 9 11 17 20 25 37 43 40 38 40 44 44 43 42 42 40 41 40 39 39 38 38 40 40 39 39 38 37 37 36 35 35 34 35 36 38 41 44 45 44 42 40 38 37 37 37 38
18 18 19 19 17 18 17 15 10 6 17 31 34 38 41 35 35 34 24 34 48 47 46 51 47 47 53 50 43 41 36 32 26 21 21 22 22 20 18 15 14 17 20 26 35 41 41 41 43 43 43 42 42 42 42 42 41 39 37 37 38 39 40 39 39 38 37 36 35 35 35 34 35 36 36 38 42 44 44 43 42 40 40 41 41 39
18 16 17 18 16 16 17 16 10 6 19 33 35 36 41 38 33 32 33 36 41 41 44 48 45 45 51 49 42 35 29 23 18 15 18 23 23 22 22 19 15 15 20 26 34 37 39 41 42 42 42 41 42 43 43 43 41 39 38 37 37 37 37 37 37 36 35 35 35 35 35 35 36 37 37 40 43 44 44 43 42 42 42 43 42 38
17 15 15 16 15 15 17 15 10 10 23 34 35 36 39 34 28 32 34 34 35 37 43 46 43 43 48 49 43 34 25 20 17 16 18 21 21 22 23 21 19 20 22 25 31 34 36 38 39 39 40 41 42 43 43 43 42 39 38 36 34 34 34 34 34 34 34 34 35 35 35 35 36 36 39 42 44 44 44 43 43 44 44 44 41 36
15 13 12 13 13 14 15 14 12 16 24 27 29 31 32 29 27 29 32 34 34 35 40 44 44 41 44 48 47 37 26 21 19 17 16 19 20 20 21 22 23 25 26 26 29 32 34 36 37 38 39 40 42 43 43 43 41 39 37 34 32 32 30 29 29 29 30 31 33 34 34 34 35 37 40 43 44 44 44 44 45 45 44 43 40 35
12 12 11 12 12 11 12 13 15 18 19 20 23 26 26 27 27 25 26 30 33 34 38 42 42 42 43 46 48 42 30 21 18 16 15 16 18 19 19 21 23 25 25 27 29 30 32 33 34 36 38 39 41 43 43 41 40 37 35 33 32 29 27 26 26 27 28 29 31 31 32 33 35 37 40 42 42 42 43 44 45 45 44 42 38 36
12 13 12 12 11 9 10 14 17 16 16 18 21 22 23 27 28 25 24 28 30 31 35 39 40 41 42 44 47 47 39 26 17 15 14 13 16 19 19 19 21 23 25 26 28 29 30 31 33 35 37 39 40 42 41 40 38 35 33 31 29 26 25 26 26 27 28 29 30 31 32 32 34 37 40 41 41 41 42 43 43 42 41 39 37 36
13 14 12 11 12 11 10 14 18 17 16 18 21 21 23 29 31 27 23 24 28 29 32 35 37 38 40 42 44 47 44 32 19 13 12 10 12 17 19 19 20 21 23 25 27 27 28 29 31 34 36 38 39 40 39 37 35 33 31 29 27 26 26 26 26 27 28 29 29 30 31 32 33 36 39 41 41 42 42 42 40 38 37 37 37 36
14 14 12 12 13 11 11 15 18 16 14 17 21 23 26 31 34 30 23 21 24 27 29 32 35 36 38 40 42 44 45 38 26 17 13 10 10 13 16 19 19 20 21 23 25 27 28 28 29 31 34 37 38 38 37 35 33 32 31 29 28 28 27 26 24 24 26 28 29 30 31 32 32 34 37 40 42 43 42 40 38 35 35 35 35 35
14 14 12 12 12 11 12 17 20 18 15 17 21 24 28 33 36 34 26 21 22 25 28 30 32 34 37 38 39 42 44 41 35 26 15 9 9 10 12 15 18 20 21 22 23 25 26 28 29 31 32 35 37 37 36 34 33 33 32 30 29 28 27 24 22 22 24 26 28 30 31 31 31 32 35 38 41 41 40 38 36 34 32 33 35 36
13 12 12 11 12 13 14 17 22 20 17 20 24 26 30 33 36 35 31 24 22 24 28 29 30 32 35 36 37 40 42 42 39 33 22 10 8 9 10 12 16 19 21 23 24 24 25 26 28 29 31 33 35 36 35 35 35 34 33 31 29 27 25 23 22 23 24 26 28 30 31 32 32 33 34 36 37 38 37 36 36 34 33 35 36 36
12 14 14 12 12 13 13 15 18 18 17 20 23 25 28 33 35 35 33 28 23 22 26 27 28 30 33 35 36 37 40 41 40 37 31 20 10 7 8 10 13 16 19 21 24 25 27 28 28 29 30 32 33 35 36 36 36 35 34 32 30 27 25 24 24 25 26 27 29 30 31 32 33 34 35 36 36 37 37 36 35 34 35 36 35 33
Wind_Direction
285 285 275 277 284 284 279 271 272 275 277 279 279 278 277 276 274 273 273 270 267 268 267 265 266 268 267 264 259 254 252 250 248 247 245 244 242 242 239 236 235 234 233 233 233 233 233 233 232 226 220 217 214 214 212 211 216 217 213 212 211 211 208 204 205 206 206 207 203 200 200 199 199 200 198 197 191 187 189 190 193 196 198 199 198 200
296 287 280 291 292 286 283 276 275 275 275 276 276 278 277 274 275 276 274 270 266 264 267 267 266 267 266 265 262 256 253 250 248 248 246 245 243 242 242 238 236 235 235 236 235 233 233 231 230 227 222 218 215 213 213 210 212 216 213 211 211 211 210 207 205 206 208 208 203 201 202 201 201 200 196 195 192 190 191 192 192 195 197 198 200 203
299 292 295 303 299 295 293 284 281 279 277 277 277 277 275 274 278 279 275 272 264 258 265 269 269 271 269 266 262 255 252 251 250 250 248 246 244 243 242 239 237 235 234 236 233 229 231 231 228 228 224 219 216 212 212 210 211 216 215 212 211 210 210 209 207 206 208 210 207 203 203 204 203 200 196 193 193 194 195 194 191 193 195 195 201 207
297 296 302 308 309 309 302 288 281 280 280 277 275 275 274 277 281 280 281 276 261 256 266 273 275 275 273 269 264 257 254 253 253 254 252 248 245 244 243 240 237 235 234 236 233 227 228 229 227 228 226 221 217 212 210 210 211 214 215 214 213 211 210 209 209 208 208 211 210 205 203 205 204 201 198 194 194 196 196 195 193 194 195 194 202 210
302 299 299 311 315 309 298 287 281 282 282 277 275 275 275 279 280 279 282 278 271 269 269 272 274 273 273 270 266 259 253 250 249 248 250 249 246 245 244 240 236 235 233 233 232 227 226 227 226 227 227 222 218 213 210 210 211 213 215 215 214 212 209 208 210 210 211 212 212 208 204 205 205 203 202 198 195 196 195 194 194 197 198 198 205 212
310 307 303 314 315 303 293 289 286 281 279 281 282 275 274 281 281 279 281 279 277 276 269 266 269 273 274 269 263 258 246 242 243 242 246 249 244 240 240 240 238 235 232 231 230 227 225 227 227 226 225 222 218 213 210 210 211 212 215 217 216 214 210 209 210 212 215 215 212 208 206 205 204 203 203 201 197 196 196 194 195 199 201 202 208 214
323 322 314 316 315 307 299 294 292 276 271 283 286 275 277 285 283 280 280 277 275 279 277 263 264 277 277 267 259 256 247 243 246 247 250 250 244 237 235 239 239 235 233 232 229 226 226 228 229 227 222 220 217 212 210 210 210 210 213 216 218 218 214 212 212 214 218 218 212 207 206 206 206 204 203 202 200 199 197 195 197 201 203 205 211 215
333 331 323 313 310 307 302 300 293 263 258 278 286 285 288 286 283 282 282 278 275 283 283 267 262 272 275 272 268 258 253 253 250 250 251 248 246 240 234 235 235 233 230 229 227 225 225 226 227 228 223 218 215 212 211 211 209 209 212 216 218 219 217 214 214 215 220 222 215 207 206 206 207 207 206 205 205 202 199 198 199 203 203 208 215 217
346 333 325 323 318 311 307 303 289 267 262 276 286 289 289 285 282 283 281 279 282 287 281 270 266 269 272 275 277 262 252 254 253 252 252 246 244 241 235 232 231 229 226 226 226 222 221 224 224 226 222 215 211 210 210 209 208 208 211 217 219 220 218 215 215 216 220 224 218 207 206 206 207 209 208 208 208 204 201 200 201 203 204 208 217 220
360 336 332 350 343 321 310 302 287 280 273 273 282 287 287 285 283 281 279 279 286 284 274 277 278 272 277 280 279 268 254 254 258 258 254 244 239 236 233 229 227 225 222 224 225 219 221 225 223 221 217 212 208 207 208 208 208 207 211 218 221 220 220 218 217 217 219 222 217 208 207 208 209 210 209 209 208 204 201 201 200 203 205 210 218 220
354 344 347 359 354 342 327 314 290 281 279 277 284 290 289 286 280 275 274 275 279 271 269 280 281 268 281 286 275 271 263 259 265 264 255 244 235 231 229 226 222 221 219 222 224 223 223 223 220 217 212 209 205 203 206 208 207 206 209 216 221 222 222 220 218 217 216 216 213 208 208 207 207 209 210 209 207 203 203 204 204 206 207 211 219 221
351 351 350 354 357 0 347 331 301 282 280 280 281 289 293 289 280 265 258 256 250 261 276 288 287 270 264 268 269 272 273 270 272 270 260 249 237 229 225 221 217 217 217 220 225 226 220 214 214 215 211 207 203 201 203 207 207 205 208 214 220 222 221 220 218 216 213 210 209 206 204 203 202 206 210 211 208 206 208 209 208 208 208 212 220 222
356 358 353 354 358 1 355 346 333 300 277 282 280 284 291 290 284 258 240 241 241 262 286 289 286 274 259 264 274 273 274 276 273 271 265 254 243 231 223 217 213 213 214 216 219 218 211 207 210 213 212 208 203 200 201 204 207 206 207 213 218 220 218 217 217 217 213 211 210 204 200 199 199 202 209 213 212 211 212 211 209 211 211 213 219 224
351 353 352 351 354 1 360 353 345 329 296 292 282 277 286 285 288 276 262 273 263 270 292 293 279 274 267 274 285 280 281 280 272 269 263 254 246 235 223 214 210 210 213 215 214 211 206 205 207 211 213 209 203 202 201 202 204 206 208 211 215 215 215 216 216 216 214 212 211 205 198 197 196 201 208 212 212 213 215 213 213 217 216 212 216 226
338 333 345 348 353 3 3 358 349 338 321 304 285 269 268 267 270 282 285 291 292 292 295 291 266 267 274 295 308 298 297 291 280 277 265 253 247 236 223 212 208 208 210 213 213 208 205 206 205 206 212 210 205 204 203 201 201 205 209 211 212 212 213 215 216 216 215 213 210 204 197 196 197 200 205 208 210 213 216 217 217 221 218 212 215 224
336 324 342 352 359 3 0 359 360 348 332 324 306 260 257 272 266 261 274 277 283 292 288 270 260 269 282 296 300 296 297 293 286 287 279 263 249 233 220 212 208 207 206 208 211 206 203 205 205 202 206 210 209 207 205 203 201 204 208 209 212 214 213 214 215 214 211 208 206 200 196 197 199 200 202 205 208 212 216 218 219 222 220 216 217 223
340 336 351 360 0 3 359 2 16 16 354 342 327 291 293 295 277 262 272 272 268 276 276 265 271 282 291 300 305 301 302 299 284 276 276 268 252 231 217 210 207 206 205 204 207 204 201 204 205 202 202 207 211 210 208 206 203 203 207 209 211 213 214 212 210 207 201 198 200 198 195 195 198 201 203 204 207 210 215 218 220 224 223 219 219 222
340 340 354 1 358 3 15 19 27 28 15 355 327 341 340 309 271 259 272 279 266 270 279 279 286 298 304 312 323 324 326 328 309 283 271 264 254 233 215 207 201 201 203 205 206 203 200 202 204 205 204 203 210 213 212 211 207 204 206 208 209 211 214 212 205 198 191 191 194 195 194 193 195 199 202 206 209 212 215 217 217 220 218 215 216 221
340 332 342 356 357 3 21 27 27 28 25 15 342 341 358 339 279 260 266 296 298 289 291 298 299 299 307 323 331 338 353 357 347 327 298 277 263 240 219 206 199 197 198 202 205 204 202 202 202 204 205 203 205 209 213 213 211 209 207 207 207 209 213 211 202 195 189 189 191 192 192 192 194 197 198 204 211 213 215 216 214 215 216 214 217 224
342 320 322 347 354 359 17 27 28 26 26 23 11 351 346 337 308 288 279 285 294 296 294 305 310 303 315 328 325 330 336 326 326 322 309 296 275 252 229 209 200 198 198 200 204 203 201 203 203 202 204 206 205 204 207 211 210 209 207 205 204 205 208 206 201 197 194 194 195 196 197 197 197 197 194 200 210 212 212 214 214 217 221 223 226 230
344 319 305 337 351 360 11 22 26 19 16 20 19 9 355 343 326 304 281 265 271 289 298 305 307 306 319 326 320 326 326 317 315 309 298 289 274 261 242 216 203 200 200 201 203 203 202 203 204 203 202 205 207 205 204 206 207 208 207 205 203 203 206 204 201 200 200 201 202 203 205 203 197 191 189 201 211 211 210 214 218 220 224 227 230 232
341 317 301 327 340 344 355 8 14 11 8 5 10 11 4 355 342 321 292 272 266 264 282 294 293 303 320 328 319 319 317 310 308 301 289 278 261 253 252 229 211 205 202 201 202 204 204 205 205 204 203 204 207 208 206 204 206 207 207 206 205 205 207 207 205 203 203 204 205 206 206 202 191 184 190 204 210 209 211 216 219 219 220 224 227 228
335 321 306 318 323 323 342 0 2 2 7 5 1 4 4 4 356 334 311 315 299 275 276 276 267 290 312 319 314 314 313 306 304 296 281 267 252 245 247 239 218 209 205 203 203 204 204 206 207 206 205 205 206 208 208 206 206 208 210 209 207 207 207 208 208 207 206 205 206 208 207 197 184 184 194 205 209 209 214 216 213 213 216 219 222 223
343 339 325 325 329 328 335 354 358 355 3 10 2 358 0 4 0 344 322 311 297 285 291 286 268 290 310 319 317 314 313 307 300 291 274 256 242 236 241 240 223 210 207 205 204 206 205 206 207 207 207 206 206 208 209 208 208 209 212 212 211 210 209 207 207 207 208 207 207 208 205 192 184 189 195 202 207 209 213 211 207 209 211 214 217 220
345 343 338 338 344 344 334 346 352 347 355 5 2 357 359 2 2 356 346 325 287 288 315 312 281 295 315 328 326 319 317 312 305 292 276 258 243 233 235 238 225 210 207 206 204 207 207 206 207 208 208 207 207 208 208 209 211 211 213 215 214 213 212 210 210 209 209 208 208 208 204 193 191 194 194 198 204 205 205 202 197 200 204 207 211 213
333 333 347 348 339 329 328 328 338 340 346 1 2 358 0 4 3 359 349 328 307 317 313 300 288 305 324 337 334 327 323 318 313 297 275 259 248 239 230 231 227 214 207 205 205 206 208 207 207 207 208 208 207 208 208 208 211 214 215 218 218 216 215 214 212 212 213 212 210 208 204 199 197 195 191 195 198 196 190 184 181 187 193 197 200 202
339 339 346 342 322 311 315 321 333 338 340 359 3 0 1 3 1 359 350 329 324 319 302 301 310 314 329 343 338 332 330 325 320 305 281 261 249 244 233 225 225 219 211 206 204 206 208 209 208 207 208 208 207 208 208 208 210 214 216 218 220 220 218 216 213 213 214 216 214 208 202 200 200 197 190 190 192 188 181 177 177 181 186 189 191 194
355 340 344 348 333 314 319 326 335 338 332 357 4 1 360 3 2 357 349 338 336 321 300 325 332 323 333 345 340 334 333 329 322 310 295 274 252 246 240 230 224 219 213 208 205 205 207 210 209 208 208 208 207 207 208 209 209 212 214 215 218 220 220 217 214 212 213 216 219 213 205 202 203 199 193 192 195 191 185 183 183 184 187 191 193 196
357 333 340 359 355 325 327 330 331 329 313 340 0 1 360 2 1 355 349 348 344 325 309 331 336 331 337 345 342 337 333 326 319 308 300 292 270 253 244 235 227 221 214 209 206 204 205 208 209 209 209 208 208 207 207 209 209 210 211 211 213 217 220 217 214 212 213 214 220 221 211 205 204 201 196 199 203 199 192 191 192 192 195 197 199 204
356 332 338 358 5 347 343 341 332 326 306 313 352 1 1 1 1 356 353 352 346 334 332 339 340 340 344 345 345 342 333 320 311 301 297 298 291 279 261 238 227 222 215 210 207 204 204 207 209 209 210 209 209 208 208 208 210 209 209 209 209 213 215 214 213 212 212 214 219 220 210 204 202 202 203 210 213 207 199 198 200 201 202 205 208 213
350 335 338 349 356 6 3 352 327 324 308 295 344 358 1 2 2 360 357 353 346 342 346 347 344 344 348 349 348 345 336 321 298 286 288 290 287 288 280 247 225 219 216 210 208 206 203 205 207 208 210 211 210 210 209 208 210 210 210 210 210 212 211 210 210 210 211 216 219 214 204 200 200 205 213 219 217 212 206 205 207 208 211 214 218 222
350 340 339 343 347 8 10 1 340 331 309 295 347 357 359 358 357 358 359 355 348 344 349 350 345 343 347 351 352 355 355 337 292 276 280 277 272 270 272 254 225 218 216 210 208 207 203 203 206 207 208 211 211 211 210 210 210 209 209 210 212 212 210 207 207 208 208 206 203 200 198 198 201 208 216 216 214 213 212 213 214 215 218 222 225 229
351 344 344 347 340 343 357 358 352 350 342 342 355 356 356 354 352 354 360 1 360 355 351 347 343 343 349 354 359 6 9 2 346 330 314 295 278 261 252 246 228 218 215 209 207 207 204 202 204 205 206 208 211 212 211 211 211 210 211 212 212 212 210 206 204 206 204 197 190 189 191 195 201 207 210 210 210 213 215 218 221 223 226 229 232 235
353 349 345 345 329 320 337 339 324 357 16 359 350 353 355 353 349 350 357 3 4 358 352 348 348 350 353 357 2 5 7 10 15 3 340 324 308 277 256 246 236 225 214 207 204 205 204 202 201 203 204 206 209 211 211 211 211 211 211 212 212 211 209 205 203 203 204 200 197 196 196 199 203 206 206 206 209 213 216 220 224 228 232 234 236 239
355 354 346 345 333 321 335 340 337 7 6 321 340 354 358 354 352 353 1 10 5 357 356 357 357 357 358 1 6 7 7 9 12 2 339 319 304 285 267 255 245 233 220 208 202 199 202 202 200 200 202 204 206 208 208 209 210 208 208 210 209 208 207 204 202 203 205 206 205 204 204 204 207 209 209 208 209 213 216 220 224 227 230 233 235 236
358 358 353 352 349 340 346 357 0 348 321 327 347 358 359 358 359 355 358 12 10 1 359 1 0 0 2 5 12 14 12 10 8 360 340 312 290 280 270 265 254 237 226 214 201 194 197 202 199 197 198 201 203 204 205 206 206 205 204 205 205 204 204 203 202 203 206 207 208 207 206 204 206 209 211 211 211 213 216 218 220 222 225 227 228 227
4 4 358 355 359 355 348 350 351 332 327 345 354 359 357 355 356 347 343 2 9 4 4 5 2 2 4 7 15 20 14 10 10 5 358 344 313 293 276 266 250 228 221 214 199 189 189 198 198 195 196 198 200 200 200 201 201 200 200 200 200 200 202 201 201 204 207 208 210 210 209 208 208 210 211 212 213 214 214 215 216 219 223 226 226 226
11 14 8 1 5 3 354 351 358 0 354 350 350 356 358 355 357 354 342 354 5 6 8 8 3 3 5 5 10 17 15 14 14 8 5 7 1 347 325 252 234 214 205 200 191 184 185 192 193 192 193 195 195 195 195 196 196 195 196 196 196 198 200 199 200 204 207 209 212 213 213 213 214 215 216 216 216 215 215 215 218 222 228 230 230 230
17 21 19 19 18 11 6 4 7 8 354 347 346 356 2 357 1 7 356 350 2 7 10 10 6 4 6 5 7 12 12 13 16 10 2 6 13 14 22 71 186 176 174 180 182 181 182 185 186 187 189 189 189 190 190 190 191 192 193 193 194 197 199 198 200 204 206 208 211 214 215 216 217 218 218 217 217 217 216 218 222 226 230 231 231 231
19 21 19 21 20 14 9 6 12 11 349 348 350 358 1 359 8 16 3 344 358 6 10 10 7 5 7 10 12 14 12 13 17 11 359 7 26 35 43 71 115 135 148 166 176 179 180 180 180 182 183 183 182 183 183 185 187 189 191 192 193 196 197 198 201 205 206 208 210 212 215 216 217 218 217 215 216 217 217 219 223 225 227 229 230 232
16 18 18 17 12 12 12 5 6 360 344 350 356 359 360 6 15 12 347 338 354 5 8 9 7 5 9 14 18 19 21 24 23 10 6 24 43 53 59 70 93 119 139 157 170 177 180 179 178 178 179 178 177 177 179 182 184 187 189 191 193 196 198 199 202 206 208 210 212 214 216 216 216 216 215 214 216 218 218 220 222 222 223 226 229 232
9 9 14 14 7 7 9 360 353 345 343 350 358 1 4 12 9 350 339 348 0 5 5 7 8 6 9 16 22 27 32 32 21 13 29 43 50 61 72 76 87 116 140 156 166 172 175 175 175 176 177 175 175 176 179 181 183 186 189 191 193 195 198 201 204 208 211 213 215 217 218 218 217 215 214 214 215 216 216 217 219 219 221 225 228 229
9 7 8 11 6 3 5 4 360 345 339 345 354 360 4 9 355 337 343 2 9 6 4 6 8 9 10 15 23 32 39 37 27 28 49 58 59 68 81 87 98 115 130 145 156 162 166 170 173 175 175 174 174 177 179 182 184 186 188 190 191 194 198 202 205 210 213 216 219 220 220 220 218 215 214 215 216 215 214 216 217 218 221 225 227 226
13 12 9 10 8 3 7 10 357 334 331 340 351 354 354 357 350 342 350 3 9 8 5 5 8 12 13 15 21 29 38 42 36 34 58 76 75 78 89 98 109 120 128 139 149 156 161 167 172 175 175 174 176 179 181 183 185 187 189 190 191 192 196 200 204 210 213 216 219 220 220 219 217 215 215 216 217 216 214 214 216 218 221 224 225 222
11 14 17 15 8 360 4 5 350 334 333 345 352 349 348 352 354 353 357 5 9 9 4 3 8 12 13 16 22 26 33 46 47 41 56 82 91 93 99 107 116 125 133 142 150 156 161 166 171 174 176 176 178 181 183 185 187 189 190 192 193 195 197 200 205 210 214 216 218 218 218 217 215 214 215 215 215 214 214 215 217 219 223 225 224 221
357 8 18 13 0 352 354 354 349 344 347 353 353 350 351 356 359 3 6 9 11 8 3 3 7 10 11 16 22 26 29 39 52 52 53 76 100 106 108 115 123 129 135 143 150 155 161 167 172 175 178 180 182 183 185 186 188 190 192 195 198 201 203 207 211 213 216 219 220 220 220 218 215 213 213 213 213 215 216 218 220 222 225 227 224 221
354 9 16 7 1 359 350 348 351 352 353 354 354 354 355 359 4 9 13 12 11 7 2 2 7 10 10 15 22 27 29 33 46 62 60 70 101 115 118 122 127 133 138 144 149 154 160 166 173 179 182 183 185 186 187 189 190 192 194 198 202 205 208 212 216 218 220 222 223 223 223 221 219 217 215 214 214 216 219 222 223 224 226 226 223 219
2 12 11 4 3 357 344 344 351 355 355 353 355 357 359 1 5 11 16 16 12 6 359 2 9 11 9 13 21 28 31 33 37 46 60 76 97 115 126 129 131 137 143 146 152 158 162 167 173 180 185 187 188 190 191 192 193 194 197 201 205 208 212 216 221 222 221 222 223 223 223 223 222 221 218 216 216 218 221 224 226 228 230 227 221 217
4 7 4 2 357 348 341 343 348 355 360 357 357 1 3 2 4 8 15 18 15 5 359 3 12 12 10 14 20 25 30 33 34 35 48 83 106 114 128 139 142 143 146 151 156 161 167 172 175 179 185 190 192 193 195 197 198 200 203 206 209 212 216 220 224 222 220 220 221 221 221 222 222 222 221 219 220 221 224 228 230 231 230 224 217 212
2 359 359 360 352 347 345 344 347 352 355 355 356 1 3 3 4 7 11 16 17 6 358 4 13 12 10 15 21 23 27 30 32 35 40 62 109 121 129 145 154 156 155 157 161 165 171 176 179 182 186 189 192 195 197 199 202 204 207 211 214 217 220 224 225 220 217 217 218 218 218 219 220 222 223 223 225 226 228 230 230 228 223 216 211 207
356 354 357 358 350 347 345 343 346 347 348 353 356 357 360 3 5 7 9 12 14 4 356 3 11 10 9 15 21 24 26 27 29 32 36 45 74 132 157 158 160 165 167 167 169 170 172 176 180 184 188 190 193 197 200 202 204 207 211 215 219 221 223 224 221 215 213 215 217 219 220 219 220 222 223 224 227 228 228 228 226 221 215 207 202 198
Height
3068 3067 3067 3065 3065 3064 3064 3064 3062 3062 3061 3060 3059 3058 3056 3055 3053 3054 3054 3054 3054 3052 3048 3048 3045 3042 3043 3044 3045 3045 3045 3044 3043 3044 3045 3046 3047 3048 3049 3050 3051 3052 3054 3055 3056 3059 3062 3064 3068 3072 3075 3076 3078 3080 3082 3084 3086 3088 3091 3093 3095 3099 3104 3108 3113 3117 3120 3125 3130 3133 3136 3139 3142 3146 3148 3150 3152 3154 3156 3159 3162 3165 3168 3170 3172 3174
3066 3065 3065 3063 3063 3062 3061 3060 3059 3058 3058 3057 3056 3054 3053 3052 3050 3051 3051 3050 3051 3049 3044 3044 3042 3038 3038 3040 3040 3041 3040 3038 3039 3040 3040 3041 3043 3044 3045 3046 3047 3049 3051 3052 3053 3055 3058 3061 3064 3067 3070 3073 3075 3077 3079 3081 3084 3085 3087 3089 3092 3096 3100 3104 3108 3112 3116 3122 3127 3131 3135 3138 3141 3144 3146 3149 3151 3153 3154 3156 3159 3162 3166 3168 3171 3173
3065 3064 3063 3061 3060 3059 3057 3057 3056 3055 3055 3054 3053 3052 3050 3049 3048 3047 3047 3046 3047 3045 3041 3041 3038 3033 3033 3035 3035 3036 3035 3033 3034 3035 3036 3037 3038 3039 3040 3042 3043 3045 3047 3048 3049 3052 3054 3057 3060 3062 3066 3069 3072 3075 3077 3079 3081 3083 3085 3087 3088 3091 3095 3099 3104 3108 3113 3119 3124 3129 3133 3136 3139 3142 3145 3147 3149 3150 3152 3154 3157 3160 3163 3166 3169 3172
3064 3062 3061 3059 3057 3056 3054 3054 3054 3053 3053 3052 3051 3050 3047 3046 3046 3044 3044 3044 3043 3042 3039 3037 3035 3029 3028 3029 3029 3030 3029 3028 3029 3030 3031 3032 3032 3033 3035 3037 3039 3040 3042 3044 3046 3048 3051 3053 3056 3058 3061 3065 3069 3071 3074 3076 3078 3080 3083 3085 3086 3088 3091 3094 3099 3105 3110 3115 3121 3126 3131 3134 3137 3140 3142 3143 3145 3147 3149 3153 3155 3158 3161 3164 3167 3170
3061 3060 3058 3057 3055 3054 3053 3052 3052 3051 3050 3049 3048 3047 3045 3044 3044 3043 3042 3042 3040 3038 3036 3035 3031 3023 3022 3023 3022 3024 3024 3023 3025 3026 3026 3026 3027 3028 3030 3033 3034 3036 3038 3040 3042 3045 3047 3049 3052 3054 3057 3061 3065 3068 3070 3073 3076 3077 3080 3082 3083 3085 3088 3090 3095 3101 3105 3109 3114 3120 3125 3128 3131 3133 3135 3138 3140 3144 3148 3151 3154 3157 3160 3162 3166 3169
3060 3059 3056 3054 3053 3052 3052 3050 3050 3050 3048 3047 3046 3045 3044 3043 3042 3041 3041 3040 3037 3034 3033 3032 3027 3019 3018 3019 3018 3020 3020 3019 3021 3021 3021 3021 3022 3024 3025 3027 3029 3031 3033 3035 3037 3040 3043 3045 3048 3051 3054 3057 3060 3064 3067 3071 3073 3076 3078 3080 3081 3082 3084 3087 3091 3096 3098 3100 3106 3114 3119 3123 3125 3128 3131 3136 3141 3144 3148 3151 3154 3157 3159 3162 3165 3167
3058 3056 3054 3053 3052 3051 3050 3048 3048 3048 3047 3045 3044 3042 3042 3041 3041 3040 3039 3038 3035 3031 3029 3030 3026 3017 3014 3015 3016 3017 3017 3017 3018 3017 3017 3017 3017 3019 3020 3021 3024 3026 3028 3030 3032 3036 3039 3041 3044 3047 3049 3052 3056 3061 3064 3067 3070 3073 3076 3078 3078 3080 3082 3085 3088 3090 3090 3093 3102 3111 3116 3121 3125 3129 3133 3137 3141 3144 3146 3149 3152 3155 3158 3161 3164 3165
3056 3054 3053 3052 3051 3049 3048 3047 3046 3045 3045 3044 3042 3041 3041 3040 3039 3038 3037 3036 3033 3030 3027 3026 3025 3017 3010 3009 3012 3013 3013 3013 3014 3013 3013 3014 3014 3014 3016 3017 3020 3022 3023 3025 3028 3031 3034 3037 3040 3043 3045 3048 3052 3057 3060 3063 3066 3069 3073 3075 3076 3078 3081 3083 3085 3086 3086 3089 3100 3110 3114 3118 3124 3129 3134 3137 3139 3142 3144 3147 3150 3153 3156 3159 3162 3164
3055 3053 3052 3050 3048 3047 3047 3046 3044 3043 3044 3043 3041 3040 3039 3038 3037 3036 3035 3033 3032 3030 3023 3020 3023 3017 3007 3005 3007 3008 3008 3007 3008 3009 3010 3010 3011 3011 3012 3014 3017 3019 3020 3022 3024 3027 3030 3033 3035 3039 3042 3045 3048 3052 3056 3060 3063 3066 3070 3072 3074 3076 3078 3080 3081 3082 3084 3087 3097 3106 3111 3116 3121 3126 3130 3134 3137 3140 3142 3145 3147 3150 3153 3156 3160 3161
3054 3052 3050 3048 3047 3046 3045 3045 3043 3042 3042 3041 3039 3038 3037 3036 3034 3034 3033 3031 3031 3028 3019 3017 3021 3015 3004 3001 3003 3003 3002 3003 3004 3005 3005 3005 3006 3007 3009 3011 3013 3016 3018 3019 3020 3023 3026 3029 3032 3035 3038 3041 3044 3048 3053 3056 3059 3062 3066 3068 3070 3073 3075 3076 3077 3079 3082 3086 3093 3103 3109 3114 3119 3123 3126 3130 3133 3137 3139 3142 3145 3147 3150 3154 3158 3159
3052 3050 3049 3047 3046 3045 3043 3042 3041 3040 3039 3039 3037 3036 3035 3034 3032 3032 3030 3030 3030 3024 3017 3015 3017 3014 3004 2998 3000 3001 2999 3000 3001 3001 3001 3002 3003 3004 3005 3007 3010 3013 3015 3016 3017 3019 3022 3025 3028 3030 3033 3036 3040 3044 3048 3052 3056 3059 3062 3064 3067 3070 3072 3074 3075 3077 3081 3085 3091 3099 3106 3111 3116 3121 3123 3126 3130 3133 3136 3138 3141 3143 3147 3152 3155 3156
3052 3049 3048 3046 3045 3043 3041 3040 3039 3038 3037 3037 3037 3036 3034 3031 3030 3029 3027 3029 3027 3019 3014 3014 3014 3013 3005 2997 2997 2999 2998 2999 2999 2999 2999 2999 3000 3001 3002 3003 3006 3010 3012 3013 3015 3016 3019 3021 3024 3027 3029 3032 3036 3039 3043 3048 3052 3055 3058 3061 3064 3066 3069 3071 3072 3076 3080 3084 3089 3095 3101 3106 3112 3117 3120 3124 3128 3131 3133 3136 3138 3141 3145 3149 3152 3154
3051 3049 3047 3045 3043 3041 3040 3038 3038 3037 3036 3036 3036 3035 3034 3030 3028 3026 3024 3024 3021 3014 3012 3012 3012 3009 3001 2995 2996 2997 2997 2997 2997 2997 2997 2997 2997 2998 2999 3000 3003 3006 3009 3011 3012 3013 3016 3019 3021 3023 3025 3028 3032 3035 3039 3044 3048 3051 3054 3057 3060 3063 3066 3068 3070 3073 3077 3081 3086 3092 3097 3102 3107 3112 3117 3122 3126 3128 3131 3133 3136 3139 3143 3147 3150 3152
3050 3047 3046 3044 3042 3040 3039 3037 3037 3036 3036 3036 3035 3035 3033 3031 3029 3025 3020 3018 3014 3011 3011 3012 3012 3005 2996 2993 2994 2993 2994 2994 2994 2994 2993 2994 2994 2995 2996 2998 3000 3003 3006 3008 3010 3011 3014 3016 3019 3020 3022 3025 3028 3032 3035 3040 3044 3048 3051 3054 3057 3060 3063 3066 3068 3071 3074 3078 3083 3089 3094 3098 3103 3107 3112 3117 3121 3125 3128 3131 3134 3138 3141 3145 3148 3151
3052 3049 3046 3045 3043 3040 3039 3038 3037 3036 3035 3034 3034 3034 3032 3031 3030 3026 3021 3017 3013 3010 3009 3011 3009 3000 2992 2992 2992 2991 2992 2991 2990 2990 2990 2990 2991 2992 2993 2995 2997 2999 3001 3005 3008 3009 3012 3015 3016 3018 3020 3022 3025 3028 3032 3036 3040 3044 3048 3051 3054 3057 3060 3063 3065 3068 3071 3074 3080 3085 3089 3094 3098 3103 3108 3113 3117 3121 3125 3128 3132 3135 3138 3142 3146 3148
3053 3049 3046 3045 3042 3040 3039 3038 3037 3035 3033 3033 3032 3032 3031 3030 3029 3026 3021 3018 3015 3011 3008 3007 3003 2995 2991 2989 2989 2990 2989 2988 2988 2988 2987 2988 2988 2989 2990 2992 2994 2996 2998 3002 3005 3007 3009 3012 3014 3016 3018 3020 3023 3026 3029 3033 3037 3041 3044 3048 3052 3055 3057 3060 3063 3065 3068 3071 3076 3082 3086 3090 3095 3099 3103 3107 3112 3116 3121 3125 3129 3133 3136 3139 3143 3146
3052 3048 3045 3044 3042 3040 3039 3038 3036 3035 3034 3032 3031 3031 3030 3027 3026 3024 3020 3017 3016 3012 3005 3001 2997 2992 2990 2988 2986 2988 2987 2987 2986 2986 2986 2986 2986 2987 2988 2989 2992 2994 2997 2999 3002 3004 3006 3009 3012 3014 3016 3018 3020 3023 3026 3030 3033 3037 3041 3046 3050 3052 3055 3058 3061 3064 3066 3069 3074 3078 3082 3086 3090 3095 3099 3103 3107 3112 3117 3122 3126 3130 3132 3136 3140 3142
3054 3047 3044 3044 3042 3040 3039 3037 3036 3035 3033 3032 3031 3030 3027 3025 3024 3023 3020 3015 3013 3009 3001 2997 2995 2990 2988 2986 2985 2986 2986 2985 2985 2985 2985 2985 2984 2984 2985 2987 2989 2992 2995 2997 2999 3002 3004 3006 3009 3012 3014 3017 3019 3021 3024 3028 3031 3035 3039 3043 3047 3050 3052 3055 3059 3063 3065 3068 3072 3075 3078 3082 3086 3091 3095 3100 3104 3109 3114 3119 3123 3127 3129 3132 3135 3138
3056 3049 3043 3043 3042 3040 3038 3037 3035 3034 3033 3032 3031 3029 3027 3025 3023 3022 3021 3016 3011 3006 2998 2995 2994 2991 2988 2986 2986 2985 2985 2985 2984 2984 2984 2984 2983 2983 2983 2984 2986 2989 2992 2994 2996 2999 3001 3004 3007 3010 3012 3015 3017 3020 3022 3025 3029 3032 3036 3040 3044 3047 3050 3054 3057 3061 3063 3067 3071 3074 3077 3080 3083 3088 3091 3096 3101 3106 3111 3115 3120 3124 3126 3128 3132 3135
3058 3053 3045 3042 3041 3040 3038 3037 3036 3035 3034 3032 3031 3029 3028 3027 3024 3022 3020 3016 3013 3008 3000 2995 2992 2990 2987 2986 2986 2985 2985 2984 2983 2983 2983 2983 2982 2982 2981 2982 2984 2986 2988 2990 2993 2996 2999 3002 3005 3008 3011 3013 3015 3018 3020 3023 3026 3030 3033 3037 3040 3044 3047 3051 3055 3059 3062 3065 3070 3073 3076 3078 3082 3086 3089 3093 3099 3103 3108 3112 3117 3121 3123 3125 3129 3132
3057 3055 3048 3042 3040 3040 3039 3038 3037 3036 3035 3033 3031 3030 3028 3026 3024 3021 3017 3014 3013 3010 3004 2998 2992 2988 2987 2986 2985 2985 2984 2982 2981 2981 2980 2980 2980 2980 2980 2980 2981 2983 2985 2987 2990 2994 2996 2999 3002 3006 3009 3011 3013 3016 3018 3021 3024 3027 3031 3034 3037 3040 3044 3048 3052 3056 3060 3063 3068 3072 3076 3079 3082 3084 3086 3092 3097 3101 3105 3110 3114 3117 3120 3122 3125 3129
3055 3053 3048 3042 3040 3040 3040 3039 3037 3036 3035 3033 3032 3031 3029 3026 3023 3020 3015 3012 3013 3010 3006 3002 2994 2987 2987 2987 2985 2984 2982 2979 2978 2977 2976 2977 2978 2978 2978 2978 2979 2981 2982 2984 2987 2990 2994 2997 3000 3003 3006 3009 3011 3014 3017 3020 3022 3025 3028 3031 3035 3037 3041 3045 3049 3053 3057 3061 3066 3070 3075 3079 3080 3081 3085 3090 3094 3098 3102 3107 3110 3113 3116 3119 3122 3126
3055 3052 3048 3044 3041 3040 3039 3038 3037 3036 3035 3034 3032 3031 3028 3026 3023 3021 3016 3012 3011 3008 3004 3003 2996 2987 2986 2986 2984 2982 2979 2976 2974 2973 2972 2972 2973 2975 2976 2975 2976 2977 2980 2982 2984 2986 2990 2993 2997 3000 3004 3007 3009 3012 3015 3018 3021 3023 3026 3030 3033 3035 3039 3043 3047 3051 3054 3058 3063 3068 3073 3076 3076 3078 3083 3088 3091 3095 3100 3104 3106 3109 3112 3116 3119 3123
3053 3051 3048 3044 3041 3040 3038 3037 3036 3035 3034 3033 3032 3030 3027 3025 3023 3021 3017 3013 3010 3006 3003 3001 2995 2986 2985 2985 2981 2978 2975 2972 2970 2968 2967 2967 2968 2970 2972 2972 2972 2973 2975 2978 2981 2983 2986 2989 2993 2997 3000 3004 3007 3009 3012 3015 3019 3022 3025 3028 3031 3034 3037 3041 3045 3048 3052 3056 3059 3064 3068 3069 3072 3077 3082 3085 3089 3094 3098 3101 3103 3106 3109 3113 3117 3121
3054 3052 3049 3044 3041 3039 3037 3036 3036 3035 3034 3034 3033 3030 3027 3024 3021 3018 3015 3013 3010 3006 3004 3002 2993 2985 2983 2982 2978 2975 2971 2968 2966 2964 2962 2962 2962 2964 2967 2967 2967 2969 2971 2974 2977 2980 2982 2985 2989 2993 2997 3001 3004 3007 3010 3014 3017 3020 3023 3026 3029 3032 3036 3039 3043 3046 3049 3053 3056 3060 3064 3066 3070 3077 3081 3084 3088 3092 3096 3099 3101 3104 3107 3111 3114 3118
3055 3053 3051 3048 3046 3043 3040 3039 3038 3036 3035 3035 3033 3030 3026 3023 3020 3017 3014 3012 3009 3005 3003 3000 2992 2983 2978 2976 2973 2971 2967 2963 2960 2958 2957 2956 2956 2957 2960 2962 2963 2964 2966 2969 2972 2975 2978 2981 2985 2989 2993 2997 3001 3005 3009 3012 3015 3018 3021 3024 3027 3031 3035 3038 3041 3044 3047 3049 3052 3057 3063 3067 3071 3076 3080 3083 3088 3091 3093 3096 3099 3103 3106 3109 3113 3116
3054 3053 3052 3050 3049 3047 3044 3042 3041 3038 3037 3036 3034 3030 3026 3023 3020 3017 3014 3011 3008 3003 2999 2996 2991 2982 2974 2970 2967 2964 2961 2958 2954 2952 2951 2950 2951 2951 2953 2956 2958 2960 2962 2965 2968 2971 2974 2977 2981 2985 2989 2994 2998 3002 3006 3010 3013 3016 3019 3023 3026 3030 3033 3036 3039 3042 3045 3048 3051 3055 3060 3065 3071 3075 3079 3083 3087 3090 3092 3094 3097 3101 3105 3108 3111 3114
3054 3053 3052 3049 3047 3046 3044 3042 3040 3038 3037 3036 3034 3029 3025 3022 3019 3016 3014 3011 3007 3002 2995 2991 2989 2983 2973 2968 2964 2959 2955 2951 2948 2947 2946 2945 2945 2946 2947 2949 2952 2954 2957 2960 2963 2966 2970 2973 2977 2981 2985 2990 2994 2999 3004 3008 3011 3015 3018 3021 3024 3027 3031 3034 3038 3041 3043 3046 3049 3052 3056 3063 3069 3073 3077 3081 3086 3088 3090 3093 3096 3099 3102 3105 3108 3111
3053 3053 3050 3048 3046 3045 3043 3041 3039 3038 3037 3036 3033 3029 3024 3020 3017 3014 3011 3008 3005 3002 2996 2988 2985 2981 2974 2968 2963 2957 2951 2946 2943 2942 2942 2940 2940 2941 2942 2943 2945 2948 2951 2954 2957 2961 2965 2969 2973 2977 2982 2986 2991 2996 3000 3005 3009 3012 3016 3020 3023 3026 3029 3032 3036 3039 3042 3045 3047 3050 3054 3060 3066 3071 3074 3079 3083 3086 3088 3091 3094 3097 3100 3103 3106 3108
3053 3052 3049 3047 3046 3045 3043 3041 3039 3038 3036 3034 3032 3029 3024 3020 3017 3013 3010 3006 3003 2999 2994 2988 2982 2977 2973 2968 2961 2954 2948 2943 2940 2939 2938 2938 2937 2936 2937 2937 2939 2942 2946 2949 2953 2957 2961 2965 2969 2974 2978 2983 2987 2992 2997 3002 3006 3010 3014 3018 3021 3024 3027 3031 3034 3037 3039 3043 3045 3048 3051 3056 3063 3068 3072 3076 3080 3084 3087 3089 3092 3096 3098 3101 3104 3106
3054 3052 3049 3047 3045 3043 3042 3040 3039 3037 3035 3033 3032 3028 3022 3017 3012 3008 3005 3002 2998 2994 2991 2986 2979 2972 2969 2964 2956 2949 2944 2940 2938 2937 2936 2935 2934 2933 2932 2932 2933 2936 2940 2945 2949 2953 2957 2961 2965 2970 2975 2980 2984 2989 2994 2999 3003 3008 3012 3016 3019 3023 3025 3029 3032 3035 3037 3040 3042 3044 3047 3053 3060 3065 3069 3073 3077 3081 3084 3087 3091 3094 3097 3099 3101 3104
3054 3051 3049 3047 3044 3042 3041 3039 3037 3035 3034 3033 3030 3024 3018 3013 3009 3006 3003 3001 2997 2992 2987 2981 2975 2969 2964 2958 2951 2945 2941 2938 2936 2936 2935 2933 2932 2930 2929 2928 2929 2931 2935 2940 2945 2949 2952 2956 2961 2966 2971 2977 2982 2986 2991 2996 3000 3005 3010 3014 3018 3021 3024 3027 3030 3033 3036 3039 3041 3043 3046 3051 3058 3063 3066 3070 3074 3078 3082 3085 3088 3092 3095 3097 3099 3102
3054 3051 3049 3047 3044 3042 3040 3038 3036 3034 3032 3032 3029 3024 3020 3016 3012 3008 3004 3001 2997 2993 2988 2983 2978 2972 2964 2956 2949 2943 2939 2937 2936 2934 2933 2931 2929 2927 2925 2925 2925 2927 2930 2934 2940 2945 2949 2953 2957 2963 2968 2974 2979 2984 2989 2994 2998 3003 3008 3012 3016 3019 3022 3025 3028 3032 3035 3038 3042 3044 3047 3052 3057 3061 3064 3068 3072 3076 3080 3083 3086 3089 3092 3095 3097 3100
3053 3051 3049 3048 3045 3041 3040 3037 3035 3033 3033 3033 3032 3029 3024 3019 3013 3008 3003 2999 2996 2995 2993 2988 2980 2972 2964 2957 2949 2944 2941 2938 2935 2933 2931 2928 2925 2923 2921 2920 2920 2922 2925 2929 2935 2941 2946 2949 2954 2959 2965 2971 2977 2982 2987 2991 2996 3001 3006 3010 3014 3017 3020 3023 3026 3030 3034 3038 3041 3044 3048 3052 3056 3059 3062 3066 3070 3073 3077 3080 3083 3087 3090 3093 3095 3097
3053 3051 3049 3048 3045 3042 3039 3035 3033 3033 3034 3035 3033 3029 3025 3021 3016 3010 3005 3001 2997 2994 2990 2981 2972 2966 2962 2956 2950 2946 2942 2939 2935 2933 2929 2926 2923 2919 2917 2916 2916 2917 2921 2924 2929 2936 2942 2946 2950 2956 2962 2969 2974 2979 2984 2989 2994 2999 3003 3007 3011 3015 3019 3022 3025 3029 3032 3036 3040 3043 3047 3051 3054 3057 3060 3064 3067 3071 3075 3078 3082 3085 3088 3090 3092 3094
3054 3052 3050 3048 3045 3042 3038 3035 3035 3036 3036 3034 3029 3024 3018 3014 3010 3006 3002 2998 2996 2994 2988 2978 2969 2964 2960 2955 2950 2946 2942 2939 2936 2933 2928 2923 2919 2915 2912 2911 2912 2913 2916 2919 2924 2931 2939 2944 2948 2953 2960 2966 2972 2977 2982 2987 2992 2997 3001 3005 3009 3013 3017 3021 3024 3027 3031 3034 3038 3041 3044 3049 3053 3055 3058 3062 3065 3069 3073 3076 3079 3082 3085 3087 3089 3091
3055 3053 3051 3049 3046 3044 3040 3038 3037 3036 3033 3029 3024 3020 3016 3013 3010 3008 3002 2997 2996 2995 2988 2978 2970 2964 2960 2955 2949 2945 2941 2938 2934 2930 2925 2919 2915 2911 2908 2907 2907 2909 2912 2915 2920 2929 2937 2942 2946 2952 2959 2965 2970 2975 2981 2986 2991 2996 3000 3003 3008 3012 3016 3019 3023 3026 3029 3033 3036 3039 3042 3047 3050 3053 3057 3060 3063 3067 3071 3074 3077 3079 3082 3084 3086 3088
3056 3054 3052 3050 3048 3046 3042 3039 3036 3034 3033 3030 3026 3024 3022 3018 3015 3011 3004 2999 2997 2995 2987 2979 2973 2967 2962 2956 2949 2944 2940 2935 2929 2925 2921 2916 2912 2909 2906 2904 2904 2906 2908 2912 2918 2928 2936 2941 2946 2952 2958 2964 2969 2975 2980 2985 2990 2994 2998 3002 3006 3010 3014 3018 3021 3024 3027 3031 3035 3038 3041 3045 3048 3052 3055 3058 3062 3065 3068 3071 3074 3076 3079 3080 3083 3085
3057 3055 3054 3051 3049 3047 3044 3040 3038 3038 3038 3035 3030 3025 3021 3017 3013 3008 3002 2999 2997 2992 2986 2980 2976 2971 2965 2959 2952 2946 2939 2934 2929 2925 2921 2916 2913 2909 2907 2905 2904 2906 2908 2913 2920 2928 2935 2940 2946 2952 2958 2964 2969 2975 2980 2985 2989 2993 2997 3001 3005 3009 3013 3017 3020 3023 3026 3030 3033 3036 3040 3043 3046 3050 3053 3056 3060 3063 3066 3068 3071 3074 3075 3077 3080 3083
3057 3055 3054 3051 3050 3048 3046 3043 3041 3041 3040 3037 3031 3024 3020 3017 3010 3003 3000 2998 2994 2991 2987 2982 2978 2974 2968 2961 2954 2947 2942 2937 2933 2930 2926 2921 2916 2913 2910 2909 2908 2909 2912 2917 2923 2930 2936 2941 2947 2953 2959 2965 2970 2975 2980 2985 2989 2993 2997 3001 3005 3009 3012 3016 3019 3021 3025 3028 3032 3035 3038 3041 3044 3047 3051 3054 3057 3060 3063 3066 3069 3071 3073 3075 3077 3080
3058 3056 3055 3053 3052 3050 3048 3046 3043 3043 3041 3036 3031 3025 3020 3012 3005 3005 3008 3005 2997 2993 2990 2985 2981 2976 2969 2962 2955 2950 2947 2944 2940 2937 2932 2926 2921 2917 2915 2915 2914 2915 2918 2922 2927 2933 2938 2943 2949 2955 2961 2966 2971 2975 2980 2984 2989 2993 2997 3001 3005 3008 3012 3015 3018 3021 3024 3027 3030 3033 3036 3039 3042 3045 3048 3051 3054 3056 3060 3063 3066 3068 3071 3072 3075 3077
3059 3058 3057 3055 3054 3052 3051 3048 3046 3044 3040 3035 3031 3027 3020 3013 3010 3013 3015 3010 3002 2998 2993 2988 2984 2978 2971 2965 2958 2953 2950 2947 2944 2940 2935 2930 2927 2923 2921 2921 2921 2922 2925 2927 2930 2936 2942 2948 2953 2958 2963 2968 2972 2977 2981 2985 2989 2993 2997 3001 3005 3008 3011 3014 3017 3020 3023 3026 3028 3031 3034 3036 3039 3043 3045 3048 3050 3053 3057 3060 3063 3066 3068 3070 3072 3074
3062 3060 3059 3057 3055 3054 3052 3049 3047 3044 3041 3036 3031 3027 3022 3020 3021 3019 3014 3009 3006 3001 2995 2991 2986 2980 2974 2968 2961 2956 2953 2949 2946 2942 2938 2935 2933 2930 2928 2927 2927 2928 2931 2934 2937 2942 2947 2953 2957 2962 2966 2970 2974 2978 2982 2986 2990 2993 2997 3001 3005 3008 3011 3014 3017 3019 3022 3024 3026 3029 3031 3034 3037 3040 3042 3045 3047 3051 3055 3058 3060 3063 3065 3067 3069 3072
3064 3062 3061 3059 3058 3056 3054 3052 3051 3049 3045 3040 3035 3031 3028 3027 3025 3020 3014 3010 3006 3002 2997 2993 2988 2983 2978 2972 2964 2959 2955 2951 2948 2945 2942 2939 2938 2936 2935 2934 2933 2934 2937 2941 2944 2948 2952 2956 2961 2965 2969 2972 2976 2980 2983 2987 2991 2994 2998 3002 3005 3007 3010 3013 3015 3018 3020 3022 3024 3026 3029 3031 3034 3037 3039 3042 3045 3049 3052 3054 3057 3060 3062 3064 3066 3069
3065 3064 3062 3061 3060 3058 3056 3055 3054 3051 3047 3043 3040 3036 3033 3029 3025 3021 3016 3012 3007 3003 3000 2995 2990 2985 2981 2975 2968 2962 2957 2954 2951 2948 2946 2944 2942 2942 2941 2941 2940 2941 2942 2945 2949 2953 2957 2961 2964 2968 2971 2975 2978 2981 2984 2988 2991 2995 2998 3001 3004 3007 3009 3012 3014 3016 3018 3020 3022 3024 3026 3029 3031 3034 3037 3040 3043 3046 3049 3052 3054 3057 3059 3061 3064 3066
3066 3064 3063 3061 3060 3059 3057 3056 3054 3050 3047 3044 3041 3038 3034 3029 3025 3021 3017 3013 3010 3006 3002 2997 2992 2988 2983 2978 2972 2965 2960 2957 2954 2951 2949 2948 2947 2946 2946 2946 2947 2947 2948 2949 2952 2956 2960 2964 2967 2970 2973 2976 2979 2982 2985 2989 2992 2995 2998 3001 3004 3006 3009 3011 3013 3015 3016 3018 3020 3022 3024 3026 3029 3031 3034 3038 3041 3043 3046 3048 3051 3053 3056 3058 3061 3063
3066 3064 3063 3062 3061 3059 3058 3056 3052 3049 3046 3044 3041 3037 3034 3029 3025 3021 3018 3014 3012 3008 3004 3000 2995 2991 2986 2981 2975 2969 2964 2960 2957 2954 2953 2952 2951 2950 2950 2950 2951 2952 2953 2954 2956 2958 2962 2966 2969 2972 2975 2977 2980 2983 2986 2989 2992 2995 2998 3000 3003 3005 3007 3009 3011 3013 3014 3016 3018 3020 3022 3024 3026 3029 3032 3035 3038 3040 3042 3045 3048 3051 3053 3055 3058 3061
3067 3065 3064 3062 3061 3060 3058 3055 3052 3049 3048 3045 3042 3037 3033 3029 3025 3022 3019 3016 3013 3010 3006 3002 2997 2993 2989 2984 2979 2974 2969 2965 2962 2959 2956 2955 2954 2954 2953 2954 2954 2955 2957 2958 2959 2961 2963 2966 2969 2973 2976 2979 2981 2984 2987 2990 2992 2995 2997 2999 3001 3004 3006 3008 3009 3011 3012 3014 3016 3017 3019 3021 3024 3027 3030 3032 3035 3037 3040 3043 3046 3049 3051 3053 3056 3058
3067 3065 3064 3063 3062 3060 3058 3054 3051 3048 3047 3045 3041 3037 3033 3029 3026 3022 3019 3016 3014 3011 3007 3003 2999 2995 2991 2987 2982 2977 2972 2969 2966 2963 2960 2958 2957 2957 2957 2957 2957 2958 2959 2960 2962 2964 2966 2967 2969 2972 2975 2978 2981 2984 2987 2990 2992 2994 2996 2998 3000 3002 3004 3006 3008 3009 3010 3012 3014 3015 3017 3019 3022 3024 3027 3030 3032 3036 3039 3042 3045 3047 3049 3051 3054 3056
3067 3066 3064 3063 3061 3059 3057 3054 3051 3048 3046 3043 3040 3037 3034 3030 3026 3023 3019 3016 3014 3011 3007 3004 3001 2998 2994 2990 2985 2980 2976 2972 2970 2967 2964 2961 2959 2959 2959 2959 2960 2960 2961 2962 2963 2965 2967 2969 2971 2972 2974 2977 2980 2983 2986 2988 2991 2993 2995 2997 2999 3001 3003 3004 3005 3007 3009 3010 3011 3013 3015 3018 3020 3022 3025 3028 3031 3034 3037 3039 3042 3044 3046 3049 3051 3053
3067 3065 3063 3062 3061 3059 3056 3054 3051 3049 3046 3043 3040 3037 3034 3031 3027 3023 3020 3016 3014 3011 3008 3005 3002 2999 2995 2992 2988 2984 2980 2976 2972 2970 2967 2964 2962 2960 2960 2960 2961 2961 2962 2963 2964 2965 2967 2969 2971 2973 2975 2977 2979 2982 2984 2986 2988 2991 2993 2995 2998 2999 3001 3002 3003 3005 3007 3008 3009 3012 3014 3017 3019 3021 3023 3026 3028 3031 3034 3036 3039 3041 3044 3047 3049 3051